[[{"header":{"parameterUnit":"m.s-1","parameterCategory":1,"la1":30.2991,"la2":30.254,"lo1":-89.0895,"lo2":-89.0444,"dy":0.0017,"dx":0.0017,"nx":28,"ny":28,"refTime":"2025-05-20T09:00:00:Z","depth":0,"parameterNumber":2,"parameterNumberName":"U-component_of_WINDS"},"data":[0,0,0,0,0,0,0,0,0,0,0,0,0,0,0,0,0,0,0,0,0,0,0,0,0,0,0,0,0,0,0,0,0,0,0,0,0,0,0,0,0,0,0,0,0,0,0,0,0,0,0,0,0,0,0,0,0,0,1.3521,1.352,0,1.3448,1.3447,1.3446,1.3282,1.3278,1.3275,1.3272,1.3203,1.3205,1.3206,0,0,0,0,0,0,0,0,0,0,0,0,0,1.3525,1.3525,1.3521,1.352,1.3519,1.3448,1.3447,1.3446,1.3282,1.3278,1.3274,1.327,1.3203,1.3204,1.3206,0,0,0,0,0,0,0,0,0,0,0,0,0,1.3495,1.3526,1.3521,1.3429,1.342,1.3448,1.3447,1.3445,1.3283,1.3278,1.3273,1.3268,1.3202,1.3204,1.3206,1.332,0,0,1.3212,1.3213,0,0,0,0,0,0,0,0,1.3497,1.3495,1.3443,1.3435,1.3425,1.3368,1.3423,1.3404,1.3284,1.3335,1.3272,1.3266,1.3263,1.3259,1.3257,1.3317,1.3314,1.3212,1.3214,1.3215,1.3215,0,0,0,0,0,0,0,1.3499,1.3497,1.3492,1.3443,1.3432,1.3393,1.3383,1.3418,1.3329,1.333,1.3318,1.3312,1.3257,1.3256,1.3254,1.3313,1.3212,1.3214,1.3215,1.3216,1.3463,1.3468,0,0,0,0,0,0,1.3513,1.35,1.3494,1.349,1.3449,1.3397,1.3386,1.3392,1.3328,1.3313,1.3316,1.3304,1.3255,1.3252,1.3251,1.338,1.3215,1.3216,1.3218,1.3458,1.3464,1.347,0,0,0,0,0,0,1.3514,1.3514,1.3497,1.3491,1.3486,1.3402,1.341,1.3393,1.3391,1.3317,1.33,1.3331,1.325,1.3248,1.3304,1.3376,1.3217,1.3219,1.3451,1.346,1.3467,1.364,0,0,0,0,0,0,1.3515,1.3516,1.3557,1.3493,1.3487,1.355,1.3415,1.3395,1.3395,1.3378,1.3326,1.3313,1.3246,1.3302,1.3306,1.3375,1.3221,1.3444,1.3455,1.3464,1.3627,1.3653,1.3674,0,0,0,0,0,1.3516,1.361,1.356,1.356,1.3536,1.3554,1.3551,1.3471,1.3401,1.3442,1.3394,1.3314,1.3367,1.3309,1.3312,1.3383,1.344,1.3452,1.3464,1.3617,1.3648,1.3674,0,0,0,0,0,0,1.3686,1.36,1.3543,1.3619,1.3595,1.3526,1.3576,1.3506,1.3503,1.3488,1.3391,1.338,1.3449,1.3422,1.3358,1.349,1.339,1.3404,1.3506,1.3535,1.3558,1.3563,1.3222,0,0,0,0,0,1.3732,1.3752,1.3676,1.3751,1.3741,1.3662,1.3666,1.3606,1.3578,1.3568,1.3523,1.3501,1.3512,1.3522,1.3528,1.3622,1.3609,1.3673,1.3697,1.3717,1.3729,1.3778,1.3805,1.3509,1.3509,1.3509,0,0,1.3828,1.3784,1.3802,1.3784,1.3758,1.3782,1.3654,1.3685,1.3703,1.3573,1.3622,1.3589,1.3558,1.3633,1.3664,1.3612,1.3808,1.3732,1.3748,1.375,1.3793,1.3821,1.3846,1.3518,1.3516,1.3515,0,0,1.4016,1.3984,1.4042,1.4018,1.398,1.3926,1.394,1.3882,1.3855,1.3902,1.3805,1.3825,1.3847,1.3828,1.3822,1.4002,1.3929,1.4007,1.4131,1.4179,1.4202,1.4222,1.4287,1.4312,1.402,1.4021,1.4021,0,1.4141,1.4171,1.4081,1.4118,1.4113,1.3995,1.4054,1.4036,1.4004,1.4004,1.3946,1.397,1.394,1.401,1.4054,1.4052,1.4067,1.4013,1.4206,1.4225,1.4243,1.4304,1.4328,1.403,1.4029,1.4028,1.4027,0,1.4327,1.435,1.4402,1.437,1.4371,1.442,1.4339,1.4351,1.4292,1.4245,1.4295,1.4255,1.4251,1.4263,1.4207,1.4326,1.4294,1.4223,1.412,1.4282,1.4338,1.436,1.4044,1.4041,1.4038,1.4036,0,0,1.4619,1.4537,1.4558,1.4542,1.4491,1.4508,1.4552,1.4545,1.4558,1.454,1.4575,1.4596,1.4528,1.4521,1.4461,1.4504,1.465,1.4426,1.4424,1.447,1.4779,1.4834,1.4862,1.4601,1.4605,1.4608,1.4782,0,1.4794,1.4862,1.4782,1.4867,1.4888,1.4776,1.4814,1.4789,1.4746,1.4759,1.4713,1.4729,1.4639,1.4634,1.4671,1.4624,1.4711,1.4611,1.4634,1.4636,1.4645,1.4891,1.4948,1.5114,1.4803,1.4807,1.4809,0,1.5008,1.4997,1.5084,1.5027,1.5033,1.5068,1.5056,1.507,1.5039,1.5005,1.4997,1.4924,1.4965,1.4865,1.4921,1.4855,1.486,1.4838,1.4843,1.4842,1.4733,1.4897,1.5165,1.5191,1.4843,1.484,1.4837,0,1.5213,1.522,1.5273,1.5263,1.5198,1.5226,1.5201,1.5164,1.5166,1.5157,1.5157,1.5154,1.5152,1.5152,1.5081,1.5015,1.5146,1.504,1.512,1.5123,1.5153,1.5152,1.5426,1.5157,1.5156,1.5156,1.5155,0,1.5416,1.5474,1.5363,1.5396,1.5458,1.5367,1.5431,1.5395,1.5364,1.5389,1.5293,1.5319,1.5223,1.524,1.5185,1.5239,1.524,1.5215,1.5199,1.5223,1.5227,1.5225,1.5212,1.5162,1.5161,1.516,1.5159,0,1.5655,1.5583,1.5633,1.5568,1.5553,1.5601,1.5546,1.5574,1.5525,1.5558,1.5561,1.5485,1.55,1.5429,1.5431,1.5394,1.5477,1.5442,1.5487,1.5476,1.556,1.5554,1.5843,1.5877,1.5587,1.559,1.5592,0,1.579,1.5831,1.577,1.5778,1.5757,1.5773,1.5773,1.5687,1.5692,1.5659,1.5693,1.5698,1.5698,1.5727,1.5674,1.5675,1.564,1.5742,1.564,1.5663,1.5642,1.564,1.5644,1.5763,1.5767,1.577,1.5772,0,1.6037,1.5999,1.6002,1.5994,1.5997,1.5987,1.597,1.5983,1.5889,1.59,1.5912,1.5913,1.5914,1.5922,1.5913,1.5889,1.5816,1.5804,1.5823,1.5848,1.5872,1.586,1.5545,1.5798,1.5795,1.5794,1.5792,1.5791,1.6227,1.6259,1.622,1.6227,1.6205,1.6192,1.6215,1.6169,1.6177,1.617,1.6119,1.6141,1.611,1.609,1.6073,1.6091,1.6043,1.607,1.6077,1.6085,1.61,1.5869,1.6089,1.6088,1.6087,1.6087,1.6086,0,1.6469,1.6438,1.6446,1.6424,1.6431,1.6359,1.6338,1.6348,1.6368,1.6344,1.6346,1.6361,1.6368,1.6316,1.6316,1.6341,1.6307,1.6344,1.6341,1.6337,1.6142,1.6126,1.6371,1.6371,1.6371,1.6371,1.6371,1.6371,1.6595,1.6644,1.6603,1.6641,1.661,1.6629,1.6623,1.6611,1.6592,1.6612,1.6617,1.6581,1.6547,1.6544,1.6548,1.6532,1.6538,1.6586,1.6559,1.6378,1.6351,1.6324,1.6309,1.6588,1.6588,1.6752,1.6754,1.6755]},{"header":{"parameterUnit":"m.s-1","parameterCategory":1,"la1":30.2991,"la2":30.254,"lo1":-89.0895,"lo2":-89.0444,"dy":0.0017,"dx":0.0017,"nx":28,"ny":28,"refTime":"2025-05-20T09:00:00:Z","depth":0,"parameterNumber":3,"parameterNumberName":"V-component_of_WINDS"},"data":[0,0,0,0,0,0,0,0,0,0,0,0,0,0,0,0,0,0,0,0,0,0,0,0,0,0,0,0,0,0,0,0,0,0,0,0,0,0,0,0,0,0,0,0,0,0,0,0,0,0,0,0,0,0,0,0,0,0,1.0576,1.0576,0,1.0554,1.0554,1.0554,1.0487,1.0485,1.0484,1.0483,1.0462,1.0463,1.0464,0,0,0,0,0,0,0,0,0,0,0,0,0,1.0561,1.0562,1.0576,1.0576,1.0575,1.0554,1.0554,1.0554,1.0487,1.0485,1.0484,1.0482,1.0462,1.0463,1.0464,0,0,0,0,0,0,0,0,0,0,0,0,0,1.0556,1.0562,1.0576,1.054,1.0536,1.0554,1.0554,1.0554,1.0488,1.0485,1.0483,1.0481,1.0461,1.0463,1.0464,1.0516,0,0,1.0468,1.0468,0,0,0,0,0,0,0,0,1.0557,1.0557,1.0545,1.0542,1.0538,1.0521,1.0541,1.0541,1.0488,1.0506,1.0483,1.048,1.0483,1.0483,1.0484,1.0515,1.0514,1.0468,1.0468,1.0469,1.0469,0,0,0,0,0,0,0,1.0557,1.0558,1.0567,1.0545,1.0541,1.0525,1.0522,1.0541,1.0508,1.0504,1.0499,1.0498,1.0481,1.0483,1.0483,1.0514,1.0468,1.0469,1.047,1.047,1.0587,1.0589,0,0,0,0,0,0,1.0562,1.0558,1.0568,1.0567,1.0542,1.0527,1.0523,1.0529,1.0507,1.0502,1.05,1.0495,1.0482,1.0481,1.0482,1.0541,1.0469,1.047,1.0471,1.0585,1.0587,1.059,0,0,0,0,0,0,1.0562,1.0564,1.0569,1.0561,1.056,1.053,1.0536,1.053,1.0531,1.0503,1.0497,1.0507,1.048,1.048,1.0508,1.0539,1.0471,1.0472,1.0582,1.0585,1.0589,1.0661,0,0,0,0,0,0,1.0562,1.0564,1.0583,1.0562,1.0561,1.0595,1.0538,1.0531,1.0533,1.0526,1.0509,1.0504,1.0478,1.0506,1.0509,1.054,1.0473,1.0579,1.0583,1.0588,1.0655,1.0666,1.0676,0,0,0,0,0,1.0562,1.0605,1.0585,1.0586,1.0584,1.0597,1.0597,1.0565,1.0536,1.0555,1.0537,1.0504,1.0536,1.051,1.0512,1.0544,1.0577,1.0582,1.0587,1.0651,1.0664,1.0675,0,0,0,0,0,0,1.0631,1.0601,1.0579,1.0616,1.0609,1.0586,1.0609,1.0581,1.0583,1.0577,1.0538,1.0535,1.0568,1.0559,1.0531,1.0593,1.0551,1.0557,1.0598,1.0611,1.0621,1.0622,1.0474,0,0,0,0,0,1.0651,1.0663,1.0636,1.0672,1.067,1.064,1.0644,1.0621,1.0613,1.061,1.0595,1.0589,1.0597,1.0603,1.061,1.0654,1.0649,1.0677,1.0687,1.0696,1.0701,1.0724,1.0736,1.0607,1.0607,1.0607,0,0,1.0691,1.0676,1.0687,1.0685,1.0678,1.0692,1.0638,1.0655,1.0665,1.0613,1.0638,1.0627,1.0618,1.0654,1.0669,1.0647,1.0736,1.0703,1.0709,1.071,1.0731,1.0743,1.0754,1.0611,1.061,1.061,0,0,1.0772,1.0762,1.079,1.0784,1.0773,1.0753,1.076,1.074,1.0731,1.0755,1.0716,1.0728,1.0743,1.0738,1.0738,1.0818,1.0788,1.0821,1.0874,1.0897,1.0907,1.0916,1.0944,1.0955,1.0827,1.0827,1.0827,0,1.0824,1.0843,1.0809,1.0828,1.0829,1.0782,1.081,1.0806,1.0798,1.08,1.0775,1.0793,1.0784,1.0819,1.0838,1.0839,1.0846,1.0823,1.0908,1.0917,1.0924,1.0951,1.0962,1.0831,1.0831,1.083,1.083,0,1.0907,1.0921,1.0945,1.0938,1.0942,1.0966,1.0936,1.0944,1.0921,1.0904,1.093,1.0917,1.092,1.0926,1.0904,1.0958,1.0945,1.0915,1.0871,1.0941,1.0966,1.0976,1.0837,1.0836,1.0834,1.0833,0,0,1.103,1.1004,1.1013,1.101,1.0994,1.1005,1.1027,1.103,1.1037,1.1034,1.1052,1.1066,1.1038,1.1038,1.1014,1.1035,1.1099,1.1002,1.1001,1.1021,1.1158,1.1181,1.1193,1.1079,1.1081,1.1082,1.1159,0,1.1106,1.1142,1.1113,1.1154,1.1167,1.1123,1.1142,1.1136,1.1121,1.113,1.1113,1.1124,1.1086,1.1086,1.1104,1.1087,1.1126,1.1081,1.1096,1.1097,1.1099,1.1206,1.1229,1.1302,1.1168,1.117,1.1171,0,1.12,1.12,1.1243,1.1225,1.1229,1.1247,1.1247,1.1257,1.1248,1.1236,1.1236,1.1207,1.1229,1.1186,1.1215,1.1186,1.119,1.1183,1.1185,1.1185,1.1138,1.1209,1.1325,1.1336,1.1186,1.1185,1.1184,0,1.1285,1.1296,1.1323,1.1322,1.1301,1.1315,1.1308,1.1297,1.1301,1.1301,1.1303,1.1306,1.1308,1.1311,1.1285,1.1256,1.1318,1.1273,1.1308,1.1309,1.1323,1.1322,1.1441,1.1326,1.1326,1.1326,1.1326,0,1.1373,1.1401,1.1361,1.1378,1.1408,1.1374,1.1406,1.1393,1.1385,1.1399,1.1361,1.1375,1.1339,1.135,1.1329,1.1357,1.1358,1.1349,1.1343,1.1352,1.1353,1.1354,1.1348,1.1329,1.1328,1.1327,1.1327,0,1.1473,1.1448,1.1474,1.1453,1.1449,1.1472,1.1454,1.1469,1.1452,1.147,1.1472,1.1446,1.1456,1.143,1.1437,1.1423,1.1462,1.1449,1.1465,1.1461,1.1498,1.1495,1.1621,1.1636,1.1512,1.1513,1.1514,0,1.1531,1.1551,1.1533,1.1539,1.1533,1.1544,1.1548,1.1516,1.1521,1.1513,1.1529,1.1537,1.1541,1.156,1.1541,1.1547,1.1533,1.1577,1.1533,1.1542,1.1533,1.1532,1.1534,1.1586,1.1587,1.1588,1.1589,0,1.1636,1.1623,1.1629,1.1631,1.1636,1.1636,1.1633,1.1641,1.1606,1.1614,1.1624,1.1628,1.1635,1.1643,1.1644,1.1637,1.1608,1.1603,1.1612,1.1621,1.163,1.1626,1.149,1.16,1.1599,1.1598,1.1598,1.1597,1.1717,1.1733,1.1722,1.173,1.1725,1.1724,1.1737,1.1721,1.1729,1.1732,1.1712,1.1727,1.1719,1.1717,1.1713,1.1725,1.1705,1.1717,1.172,1.1723,1.173,1.1628,1.1725,1.1724,1.1724,1.1724,1.1723,0,1.182,1.1811,1.1819,1.1816,1.1823,1.1795,1.1791,1.1798,1.1811,1.1806,1.1811,1.1823,1.1831,1.1813,1.1818,1.1831,1.1818,1.1834,1.1832,1.1831,1.1747,1.1739,1.1844,1.1844,1.1844,1.1844,1.1844,1.1844,1.1874,1.19,1.1886,1.1909,1.19,1.1913,1.1914,1.1913,1.1908,1.1923,1.1929,1.1917,1.1907,1.1912,1.1918,1.1913,1.1916,1.1937,1.1927,1.1849,1.1837,1.1826,1.1818,1.1938,1.1938,1.201,1.201,1.2011]}]]